カタログに戻る

NADEZHDA 1

運用中通信PO
NORAD 20103·PAYLOAD·🇷🇺 Russia

打ち上げ Jul 4, 1989 から Plesetsk Cosmodrome

Loading…

次のパス (今後24時間)

TLE

最新Source: Space-Track

元期: Sep 14, 2026, 08:57 UTC

1 20103U 89050A   26257.37339558  .00000052  00000-0  38484-4 0  9991
2 20103  82.9580 235.5665 0036486 217.3222 311.0492 13.74858076865703

AllMySatでNADEZHDA 1をリアルタイム追跡

Download on the App Store